Weather observations for the past three days for
Mount Pleasant Regional-Faison Field
Imperial (Metric)
Date Time (edt) Wind (mph) Vis. (mi.) Weather Sky Cond. Temperature (ºF) Relative Humidity Wind Chill (°F) Heat Index (°F) Pressure Precipitation (in)
Air Dwpt 6 hour altimeter (in) sea level (mb) 1 hr 3 hr 6 hr
Max. Min.
20 20:55 Vrbl 6 6.00 Thunderstorm in Vicinity Rain NULL 77 77 100% 78 30.12 0.0 0.01
20 20:35 Calm 7.00 Thunderstorm in Vicinity Drizzle FEW043 SCT055 BKN090 77 77 100% 78 30.1 0.0
20 20:15 Vrbl 3 7.00 A Few Clouds FEW075 FEW095 77 77 100% 78 30.1 0.0
20 19:55 Calm 6.00 Thunderstorm in Vicinity Fog/Mist NULL 75.2 75.2 100% 73 30.09 0.0 0.01
20 19:35 Calm 6.00 Thunderstorm in Vicinity Fog/Mist NULL 75.2 75.2 100% 73 30.09 0.0
20 19:15 Calm 5.00 Thunderstorm in Vicinity Fog/Mist NULL 75.2 75.2 100% 73 30.07 0.0
20 18:55 Vrbl 5 2.00 Thunderstorm in Vicinity Rain FEW035 SCT047 SCT060 77 75.2 94% 78 30.08 0.0 0.02
20 18:35 S 9 8.00 A Few Clouds FEW120 77 75.2 94% 78 30.08 0.0
20 18:15 Calm 8.00 Thunderstorm in Vicinity CLR 77 77 100% 78 30.08 0.0
20 17:35 Vrbl 5 G 12 1.00 Thunderstorm Heavy Rain NULL 77 75.2 94% 78 30.09 0.0
20 17:15 NW 9 G 17 8.00 Thunderstorm FEW029 SCT035 SCT041 84.2 73.4 70% 91 30.09 0.0
20 16:55 S 12 G 17 8.00 Thunderstorm CLR 89.6 80.6 75% 108 30.07 0.0
20 16:35 S 13 8.00 Thunderstorm in Vicinity CLR 89.6 80.6 75% 108 30.06 0.0
20 15:55 SE 13 8.00 Fair CLR 89.6 82.4 79% 111 30.07 0.0
20 15:35 S 13 7.00 A Few Clouds FEW050 FEW065 89.6 82.4 79% 111 30.08 0.0
20 15:15 S 13 7.00 A Few Clouds FEW049 FEW055 FEW065 87.8 82.4 84% 108 30.09 0.0
20 14:35 SE 7 G 14 7.00 Partly Cloudy FEW038 SCT050 SCT065 87.8 82.4 84% 108 30.09 0.0
20 14:15 SE 7 7.00 A Few Clouds FEW036 89.6 82.4 79% 111 30.1 0.0
20 13:55 Vrbl 6 7.00 A Few Clouds FEW037 89.6 82.4 79% 111 30.1 0.0
20 13:35 Vrbl 7 8.00 Fair CLR 89.6 78.8 71% 105 30.11 0.0
20 13:15 Vrbl 6 8.00 Fair CLR 87.8 78.8 75% 102 30.12 0.0
20 12:35 SW 8 8.00 Fair CLR 87.8 78.8 75% 102 30.13 0.0
20 12:15 Vrbl 7 8.00 A Few Clouds FEW028 FEW033 86 80.6 84% 102 30.13 0.0
20 11:55 Vrbl 7 8.00 Partly Cloudy SCT028 SCT033 86 80.6 84% 102 30.13 0.0
20 11:35 SW 10 8.00 Thunderstorm in Vicinity SCT028 86 78.8 79% 99 30.13 0.0
20 11:15 SW 8 8.00 Mostly Cloudy BKN028 86 78.8 79% 99 30.13 0.0
20 10:55 S 9 7.00 Mostly Cloudy BKN024 BKN030 86 80.6 84% 102 30.13 0.0
20 10:35 Calm 7.00 A Few Clouds FEW022 FEW027 84.2 80.6 89% 98 30.13 0.0
20 10:15 Calm 7.00 A Few Clouds FEW017 84.2 80.6 89% 98 30.14 0.0
20 09:55 Calm 7.00 Partly Cloudy SCT015 SCT026 84.2 80.6 89% 98 30.14 0.0
20 09:35 Vrbl 6 7.00 Partly Cloudy SCT014 SCT026 82.4 80.6 94% 94 30.14 0.0
20 09:15 Calm 6.00 Fog/Mist CLR 80.6 80.6 100% 89 30.13 0.0
20 08:55 Vrbl 3 7.00 Fair CLR 80.6 80.6 100% 89 30.13 0.0
20 08:35 Calm 7.00 A Few Clouds FEW042 80.6 80.6 100% 89 30.13 0.0
20 08:15 Calm 6.00 Fog/Mist BKN039 BKN046 77 77 100% 78 30.12 0.0
20 07:55 Calm 5.00 Fog/Mist OVC039 77 77 100% 78 30.12 0.0
20 07:35 Calm 5.00 Fog/Mist BKN040 BKN055 75.2 75.2 100% 73 30.11 0.0
20 07:15 Calm 3.00 Fog/Mist NULL 75.2 75.2 100% 73 30.11 0.0
20 06:55 Calm 2.50 Fog/Mist FEW020 FEW025 75.2 75.2 100% 73 30.11 0.0
20 06:35 Calm 2.50 Fog/Mist FEW019 FEW024 75.2 75.2 100% 73 30.1 0.0
20 06:15 Calm 4.00 Fog/Mist SCT019 SCT024 75.2 75.2 100% 73 30.1 0.0
20 05:55 Calm 3.00 Fog/Mist CLR 75.2 75.2 100% 73 30.1 0.0
20 05:35 Calm 4.00 Fog/Mist SCT027 75.2 75.2 100% 73 30.09 0.0
20 05:15 Calm 5.00 Fog/Mist OVC025 75.2 75.2 100% 73 30.09 0.0
20 04:55 Calm 5.00 Fog/Mist OVC022 75.2 75.2 100% 73 30.08 0.0
20 04:35 Calm 4.00 Fog/Mist SCT024 SCT055 75.2 75.2 100% 73 30.08 0.0
20 04:15 Calm 4.00 Fog/Mist CLR 75.2 75.2 100% 73 30.08 0.0
20 03:15 Calm 4.00 Fog/Mist NULL 75.2 75.2 100% 73 30.08 0.0
20 02:55 Calm 5.00 Fog/Mist CLR 75.2 75.2 100% 73 30.08 0.0
20 02:15 Calm 4.00 Fog/Mist FEW004 SCT020 75.2 75.2 100% 73 30.09 0.0
20 01:55 Calm 4.00 Fog/Mist NULL 75.2 75.2 100% 73 30.1 0.0
20 01:35 Calm 5.00 Fog/Mist CLR 75.2 75.2 100% 73 30.1 0.0
20 00:55 Calm 5.00 Fog/Mist CLR 75.2 75.2 100% 73 30.1 0.0
20 00:35 Calm 6.00 Fog/Mist CLR 75.2 75.2 100% 73 30.1 0.0
20 00:15 Calm 7.00 Fair CLR 75.2 75.2 100% 73 30.1 0.0
19 23:55 Calm 7.00 Partly Cloudy SCT048 SCT060 SCT070 77 77 100% 78 30.11 0.0 0.01
19 23:35 Calm 6.00 Light Drizzle SCT042 SCT050 BKN060 77 77 100% 78 30.11 0.0
19 22:55 Calm 7.00 A Few Clouds FEW055 77 77 100% 78 30.11 0.0
19 22:35 Vrbl 3 8.00 A Few Clouds FEW050 FEW060 FEW120 77 77 100% 78 30.11 0.0
19 22:15 Vrbl 5 9.00 Fair CLR 77 77 100% 78 30.1 0.0
19 21:55 Calm 8.00 Partly Cloudy FEW050 SCT060 78.8 78.8 100% 83 30.1 0.0
19 21:35 Calm 8.00 Partly Cloudy FEW050 SCT065 SCT075 78.8 78.8 100% 83 30.09 0.0
19 20:35 Vrbl 6 6.00 Fog/Mist SCT050 80.6 80.6 100% 89 30.08 0.0
19 20:15 Calm 5.00 Light Drizzle NULL 80.6 80.6 100% 89 30.07 0.0
19 19:55 Calm 5.00 Fog/Mist NULL 80.6 80.6 100% 89 30.08 0.0 0.01
19 19:35 Vrbl 5 5.00 Light Drizzle NULL 80.6 80.6 100% 89 30.07 0.0
19 19:15 Vrbl 5 6.00 Fog/Mist NULL 80.6 80.6 100% 89 30.05 0.0
19 18:35 Vrbl 5 4.00 Light Drizzle FEW029 80.6 80.6 100% 89 30.05 0.0
19 18:15 S 3 4.00 Light Drizzle NULL 80.6 80.6 100% 89 30.05 0.0
19 17:35 Calm 3.00 Light Drizzle FEW020 80.6 80.6 100% 89 30.04 0.0
19 17:15 Calm 5.00 Light Drizzle CLR 80.6 80.6 100% 89 30.04 0.0
19 16:55 Vrbl 5 4.00 Light Drizzle NULL 80.6 80.6 100% 89 30.05 0.0
19 16:35 Calm 6.00 Thunderstorm in Vicinity Fog/Mist NULL 80.6 80.6 100% 89 30.05 0.0
19 16:15 S 7 6.00 Thunderstorm in Vicinity Fog/Mist CLR 80.6 80.6 100% 89 30.05 0.0
19 15:55 SE 7 7.00 Thunderstorm in Vicinity CLR 82.4 80.6 94% 94 30.04 0.0
19 15:15 SE 9 7.00 Thunderstorm in Vicinity CLR 82.4 82.4 100% 96 30.05 0.0
19 14:55 Calm 9.00 Fair CLR 80.6 80.6 100% 89 30.06 0.0 0.27
19 14:35 S 16 G 24 1.00 Thunderstorm Rain FEW004 SCT025 SCT037 75.2 75.2 100% 73 30.07 0.0
19 14:15 S 15 0.25 Thunderstorm Heavy Rain BKN025 BKN031 OVC050 78.8 78.8 100% 83 30.08 0.0
19 13:15 S 8 G 14 7.00 Partly Cloudy SCT027 SCT035 SCT050 87.8 80.6 79% 105 30.08 0.0
19 12:55 Calm 8.00 Partly Cloudy SCT027 87.8 80.6 79% 105 30.09 0.0
19 12:35 Vrbl 5 8.00 Partly Cloudy SCT025 SCT030 86 80.6 84% 102 30.09 0.0
19 12:15 Calm 8.00 A Few Clouds FEW025 86 80.6 84% 102 30.1 0.0
19 11:15 Vrbl 7 9.00 A Few Clouds FEW025 86 78.8 79% 99 30.1 0.0
19 10:55 Calm 8.00 A Few Clouds FEW026 FEW041 86 78.8 79% 99 30.1 0.0
19 10:35 Calm 8.00 Partly Cloudy SCT039 84.2 78.8 84% 96 30.11 0.0
19 09:55 Calm 9.00 Fair CLR 84.2 77 79% 94 30.09 0.0
19 09:15 Calm 7.00 Fair CLR 82.4 78.8 89% 92 30.08 0.0
19 08:55 Calm 8.00 Thunderstorm in Vicinity CLR 82.4 78.8 89% 92 30.07 0.0
19 08:35 Calm 7.00 Thunderstorm in Vicinity CLR 82.4 78.8 89% 92 30.07 0.0
19 08:15 Calm 7.00 Thunderstorm in Vicinity CLR 80.6 78.8 94% 88 30.07 0.0
19 07:55 Calm 8.00 Thunderstorm in Vicinity CLR 78.8 78.8 100% 83 30.07 0.0
19 07:35 Calm 8.00 Fair CLR 78.8 78.8 100% 83 30.06 0.0
19 07:15 Calm 7.00 Fair CLR 77 77 100% 78 30.06 0.0
19 06:55 Calm 7.00 Fair CLR 77 77 100% 78 30.06 0.0
19 06:35 Calm 8.00 Fair CLR 77 77 100% 78 30.05 0.0
19 06:15 Calm 9.00 Fair CLR 75.2 75.2 100% 73 30.04 0.0
19 05:55 Calm 10.00 Fair CLR 77 77 100% 78 30.03 0.0
19 05:35 Calm 9.00 Fair CLR 77 77 100% 78 30.03 0.0
19 05:15 Calm 9.00 Fair CLR 77 77 100% 78 30.02 0.0
19 04:55 Calm 10.00 Fair CLR 77 77 100% 78 30.02 0.0
19 04:35 Calm 10.00 Fair CLR 77 77 100% 78 30.01 0.0
19 04:15 Calm 10.00 Fair CLR 77 77 100% 78 30.01 0.0
19 03:55 Calm 9.00 Fair CLR 77 77 100% 78 30.01 0.0
19 03:35 Calm 9.00 Fair CLR 77 77 100% 78 30.01 0.0
19 03:15 Calm 10.00 Fair CLR 77 77 100% 78 30.01 0.0
19 02:55 Calm 10.00 Fair CLR 77 77 100% 78 30.01 0.0
19 02:15 Calm 10.00 Fair CLR 77 77 100% 78 30.01 0.0
19 01:55 Calm 10.00 Fair CLR 78.8 77 94% 83 30.02 0.0
19 01:35 Calm 10.00 Thunderstorm in Vicinity CLR 78.8 77 94% 83 30.03 0.0
19 01:15 Calm 9.00 A Few Clouds FEW043 80.6 77 89% 87 30.03 0.0
19 00:35 Calm 9.00 Mostly Cloudy FEW040 SCT046 BKN060 80.6 77 89% 87 30.04 0.0
18 23:35 Calm 10.00 Fair CLR 82.4 78.8 89% 92 30.03 0.0
18 23:15 Calm 9.00 Fair CLR 82.4 77 84% 91 30.03 0.0
18 22:55 Calm 9.00 Fair CLR 82.4 77 84% 91 30.03 0.0
18 22:35 Calm 10.00 Fair CLR 82.4 77 84% 91 30.03 0.0
18 22:15 Calm 10.00 Fair CLR 82.4 77 84% 91 30.02 0.0
18 21:55 Calm 9.00 Fair CLR 82.4 77 84% 91 30.02 0.0
18 21:35 S 6 G 12 9.00 A Few Clouds FEW019 82.4 75.2 79% 89 30.01 0.0
18 21:15 S 7 G 14 10.00 A Few Clouds FEW019 84.2 75.2 74% 92 30.01 0.0
18 20:55 S 13 G 20 10.00 Fair CLR 84.2 75.2 74% 92 30.01 0.0
18 20:35 S 12 7.00 Fair CLR 84.2 77 79% 94 30 0.0
18 20:15 S 10 G 16 6.00 Fair with Haze CLR 84.2 78.8 84% 96 29.97 0.0
18 19:55 Calm 7.00 Fair CLR 84.2 80.6 89% 98 29.97 0.0
18 19:35 S 12 G 21 7.00 A Few Clouds FEW023 84.2 80.6 89% 98 29.97 0.0
18 19:15 S 13 G 20 8.00 Fair CLR 86 80.6 84% 102 29.97 0.0
18 18:55 S 9 G 18 8.00 Fair CLR 86 80.6 84% 102 29.97 0.0
18 18:35 S 17 8.00 Fair CLR 87.8 78.8 75% 102 29.96 0.0
18 18:15 S 15 G 22 7.00 Fair CLR 86 78.8 79% 99 29.95 0.0
18 17:55 S 15 8.00 Fair CLR 87.8 80.6 79% 105 29.95 0.0
18 17:35 S 14 G 25 7.00 A Few Clouds FEW025 87.8 80.6 79% 105 29.96 0.0
18 17:15 S 15 8.00 A Few Clouds FEW026 87.8 80.6 79% 105 29.96 0.0
18 16:55 S 15 G 21 7.00 Fair CLR 87.8 80.6 79% 105 29.97 0.0
18 16:35 S 17 7.00 Fair CLR 89.6 80.6 75% 108 29.97 0.0
18 16:15 S 15 G 22 8.00 Fair CLR 89.6 80.6 75% 108 29.97 0.0
18 15:55 S 15 7.00 Fair CLR 89.6 78.8 71% 105 29.98 0.0
18 15:35 S 15 G 21 8.00 Fair CLR 89.6 78.8 71% 105 29.99 0.0
18 15:15 S 14 8.00 Fair CLR 89.6 78.8 71% 105 30 0.0
18 14:55 S 15 8.00 Fair CLR 89.6 77 67% 103 30.01 0.0
18 14:35 S 14 8.00 Fair CLR 89.6 77 67% 103 30.01 0.0
18 14:15 S 15 G 23 8.00 A Few Clouds FEW027 89.6 78.8 71% 105 30.02 0.0
18 13:55 S 15 7.00 Partly Cloudy SCT029 89.6 80.6 75% 108 30.02 0.0
18 13:35 S 15 8.00 A Few Clouds FEW031 89.6 78.8 71% 105 30.03 0.0
18 12:55 S 14 8.00 Fair CLR 89.6 78.8 71% 105 30.04 0.0
18 12:35 SW 7 G 18 8.00 Fair CLR 87.8 78.8 75% 102 30.05 0.0
18 12:15 S 9 8.00 Fair CLR 86 78.8 79% 99 30.05 0.0
18 11:55 Calm 8.00 Fair CLR 84.2 77 79% 94 30.05 0.0
18 11:35 SW 6 8.00 Fair CLR 84.2 77 79% 94 30.05 0.0
18 10:55 SW 9 8.00 Fair CLR 84.2 77 79% 94 30.05 0.0
18 10:15 W 8 8.00 Fair CLR 82.4 77 84% 91 30.05 0.0
18 09:55 SW 10 8.00 Fair CLR 82.4 77 84% 91 30.04 0.0
18 09:35 SW 7 8.00 Fair CLR 80.6 77 89% 87 30.04 0.0
18 09:15 SW 3 G 12 7.00 Fair CLR 80.6 77 89% 87 30.05 0.0
18 08:55 Calm 8.00 Fair CLR 80.6 77 89% 87 30.05 0.0
18 08:35 Calm 8.00 Fair CLR 78.8 75.2 89% 82 30.05 0.0
18 08:15 Vrbl 7 8.00 Thunderstorm in Vicinity CLR 80.6 75.2 84% 86 30.05 0.0
18 07:55 Calm 8.00 Fair CLR 80.6 75.2 84% 86 30.05 0.0
18 07:35 Calm 8.00 Fair CLR 80.6 75.2 84% 86 30.04 0.0
18 07:15 Calm 8.00 A Few Clouds FEW070 80.6 77 89% 87 30.03 0.0
18 06:55 Calm 8.00 Mostly Cloudy SCT070 BKN075 78.8 77 94% 83 30.02 0.0
18 06:35 Calm 8.00 Thunderstorm in Vicinity SCT070 78.8 77 94% 83 30.02 0.0
18 06:15 Calm 10.00 Fair CLR 78.8 77 94% 83 30.01 0.0
18 05:55 Calm 9.00 A Few Clouds FEW060 FEW110 78.8 78.8 100% 83 30.01 0.0
18 05:35 Calm 10.00 Partly Cloudy SCT060 SCT075 SCT090 80.6 78.8 94% 88 30 0.0
18 05:15 Vrbl 6 G 13 10.00 Overcast FEW060 BKN070 OVC080 80.6 78.8 94% 88 30.01 0.0
18 04:55 Calm 9.00 Mostly Cloudy SCT060 BKN075 80.6 78.8 94% 88 30 0.0
18 04:35 Calm 10.00 Partly Cloudy FEW055 SCT070 80.6 78.8 94% 88 29.99 0.0
18 04:15 Calm 10.00 Fair CLR 80.6 78.8 94% 88 30 0.0
18 03:55 Calm 10.00 Fair CLR 80.6 78.8 94% 88 29.99 0.0
18 03:35 Calm 9.00 A Few Clouds FEW025 80.6 77 89% 87 29.99 0.0
18 03:15 Calm 10.00 Fair CLR 80.6 77 89% 87 29.99 0.0
18 02:55 Calm 10.00 Fair CLR 80.6 77 89% 87 29.99 0.0
18 02:35 S 9 10.00 A Few Clouds FEW036 80.6 77 89% 87 29.99 0.0
18 02:15 S 6 9.00 A Few Clouds FEW036 80.6 77 89% 87 29.99 0.0
18 01:55 S 8 10.00 Fair CLR 80.6 77 89% 87 29.99 0.0
18 01:35 Calm 10.00 Fair CLR 80.6 77 89% 87 30 0.0
18 01:15 S 8 10.00 Fair CLR 80.6 77 89% 87 30.01 0.0
18 00:55 S 7 9.00 A Few Clouds FEW060 80.6 77 89% 87 30.01 0.0
18 00:35 Calm 9.00 A Few Clouds FEW060 80.6 77 89% 87 30.02 0.0
18 00:15 S 3 10.00 Fair CLR 82.4 77 84% 91 30.02 0.0
17 23:55 Calm 10.00 Fair CLR 82.4 77 84% 91 30.02 0.0
17 23:35 Calm 9.00 Fair CLR 82.4 77 84% 91 30.03 0.0
17 23:15 Calm 9.00 A Few Clouds FEW065 82.4 78.8 89% 92 30.04 0.0
17 22:35 S 7 9.00 Fair CLR 84.2 78.8 84% 96 30.04 0.0
17 22:15 S 5 G 15 9.00 Fair CLR 84.2 78.8 84% 96 30.04 0.0
17 21:55 Calm 8.00 Fair CLR 84.2 80.6 89% 98 30.03 0.0
Date Time (edt) Wind (mph) Vis. (mi.) Weather Sky Cond. Air Dwpt Max. Min. Relative Humidity Wind Chill (°F) Heat Index (°F) altimeter (in) sea level (mb) 1 hr 3 hr 6 hr
6 hour
Temperature (ºF) Pressure Precipitation (in)